Location: Aultman
(40.9284°N, 81.4173°W)
Time: 09:37:27
(UTC+00:00)

MOS 1 Rocket - Pass Details

Date: 24 January 2021
Orbit: 614 x 830 km, 97.4° (Epoch: 02 March)

Event Time Altitude Azimuth Distance (km) Brightness Sun altitude
Rises 23:39:06 0° 12° (NNE) 2,899 6.2 -12.5°
Reaches altitude 10° 23:41:18 10° 14° (NNE) 1,983 5.4 -12.9°
Maximum altitude 23:45:35 82° 102° (ESE) 627 3.0 -13.7°
Drops below altitude 10° 23:49:54 10° 190° (S) 1,991 6.0 -14.5°
Sets 23:52:06 0° 191° (SSW) 2,912 6.8 -14.9°
